SCP
0 0 0 0 0 0 -0 0 0 0 0 0 0 0 0 0 0 0 0 0 0 0 0 0 0 0 0 0 0 0 0 0 0 0 0 0 0 0 0 1 0 0 0 0
-0 0 0 0 0 0 0 0 0 0 0 0 0 0 0 0 0 0 0 0 0 0 0 0 0 0 0 0 0 0 0 0 0 0 0 0 0 0 0 0 0 0 0 0
0 0 0 0 0 0 0 0 0 0 0 0 0 0 0 0 0 0 0 0 0 0 0 0 0 0 0 0 0 0 0 0 0 0 0 0 0 -0 0 0 0 0 0 0
0 -0 -0 0 0 0 0 0 0 0 0 0 0 0 0 0 0 0 0 0 0 0 0 0 0 0 0 0 0 0 0 0 0 0 0 0 0 0 0 0 0 0 0 0
0 0 0 0 0 0 0 0 0 0 0 0 0 0 0 0 0 0 0 0 0 0 0 0 0 0 0 0 0 0 0 0 0 0 0 0 0 0 0 0 0 0 0 0
0 0 0 0 0 1 0 0 0 0 0 0 0 0 0 0 0 0 0 0 0 0 0 0 0 0 0 0 0 0 0 0 0 -0 -0 -0 0 0 0 -0 -0 0 0 0
-0 0 0 0 0 0 0 0 0 0 0 0 0 0 0 0 0 0 0 0 0 0 0 0 0 0 0 0 0 0 0 0 0 0 0 0 0 0 0 0 -0 0 0 0
0 0 0 0 0 0 0 0 0 0 0 0 0 0 0 0 0 0 0 0 0 0 0 0 0 0 0 0 0 0 0 0 0 0 0 0 0 0 0 0 -0 -0 -0 0
0 0 0 0 0 0 0 0 0 0 0 0 0 0 0 0 0 0 0 0 0 0 0 0 0 0 0 0 0 0 0 0 0 0 0 0 0 0 0 0 -0 0 0 0
0 0 0 0 0 0 0 0 0 0 0 0 0 0 0 0 0 0 0 0 0 0 0 0 0 0 0 0 0 0 0 0 0 0 0 0 0 -0 -0 0 0 0 0 0
0 0 0 0 0 0 0 0 0 0 0 0 0 0 0 0 0 0 0 0 0 0 0 0 0 0 0 0 0 0 0 0 0 0 0 0 0 0 0 0 0 0 0 -0
-0 0 0 0 0 0 0 0 0 0 0 0 0 0 0 0 0 0 0 0 0 0 0 0 0 0 0 0 0 0 0 0 0 0 0 0 0 0 0 0 0 0 -0 -0
-0 -0 -0 -0 -0 0 0 0 0 0 0 0 0 0 0 0 0 0 0 0 0 0 0 0 0 0 0 0 0 0 0 0 0 0 0 0 0 0 0 0 0 0 -0 -0
-0 -0 -0 -0 -0 -0 0 0 0 0 0 0 0 0 0 0 0 0 0 0 0 0 0 0 0 0 0 0 0 0 0 0 0 0 0 0 0 0 0 0 0 0 0 -0
-0 -0 -0 0 0 -0 0 0 0 0 0 0 0 0 0 0 0 0 0 0 0 0 0 0 0 0 0 0 0 0 0 0 0 0 0 0 0 0 0 -0 0 0 -0 -0
-0 -0 -0 -0 -0 0 0 0 0 0 0 0 0 0 0 0 0 0 0 0 0 0 0 0 0 0 0 0 0 0 0 0 0 0 0 0 0 0 0 0 -0 -0 -0 -0
-0 -0 -0 -0 -0 0 0 0 0 0 0 0 0 0 0 0 0 0 0 0 0 0 0 0 0 0 0 0 0 0 0 0 0 0 0 0 0 0 0 0 0 0 -0 -0
0 0 0 0 0 0 0 0 0 0 0 0 0 0 0 0 0 0 0 0 0 0 0 0 0 0 0 0 0 0 0 0 0 0 0 0 0 0 0 0 0 0 -0 0
0 0 0 0 0 0 0 0 0 0 0 0 0 0 0 0 0 0 0 0 0 0 0 0 0 0 0 0 0 0 0 0 0 0 0 0 0 0 0 0 0 0 0 0
0 0 0 0 0 0 0 0 0 0 0 0 0 0 0 0 0 0 0 0 0 0 0 0 0 0 0 0 0 0 0 0 0 0 0 0 0 0 0 0 0 0 0 0
0 0 0 0 0 0 0 0 0 0 0 0 0 0 0 0 0 0 0 0 0 0 0 0 0 0 0 0 0 0 0 0 0 0 0 -0 -0 0 0 0 0 0 0 0
0 0 0 0 0 0 0 0 0 0 0 0 0 0 0 0 0 0 0 0 0 0 0 0 0 0 0 0 0 0 0 0 0 0 0 0 0 0 -0 -0 0 0 0 0
0 0 0 0 0 0 0 0 0 0 0 0 0 0 0 0 0 0 0 0 0 0 0 0 0 0 0 0 0 0 0 0 0 0 0 0 0 -0 -0 -0 -0 -0 -0 0
-0 0 0 0 0 0 0 0 0 0 0 0 0 0 0 0 0 0 0 0 0 0 0 0 0 0 0 0 0 0 0 0 0 0 0 0 0 0 -0 -0 -0 -0 -0 0
-0 0 -0 0 0 0 0 0 0 0 0 0 0 0 0 0 0 0 0 0 0 0 0 0 0 0 0 0 0 0 0 0 0 0 0 0 -0 -0 -0 -0 0 0 -0 -0
-0 -0 -0 -0 -0 -0 0 0 0 0 0 0 0 0 0 0 0 0 0 0 0 0 0 0 0 0 0 0 0 0 0 0 0 0 0 0 0 0 0 0 0 0 0 0
0 0 0 0 0 0 0 0 0 0 0 0 0 0 0 0 0 0 0 0 0 0 0 0 0 0 0 0 0 0 0 0 0 0 0 0 0 0 0 0 0 0 0 -0
Wind_Speed_500mb
114 110 101 93 85 80 78 50 9 49 78 26 9 31 19 24 47 43 11 25 25 40 50 43 44 39 39 24 49 47 43 13 24 35 25 27 38 45 46 11 14 18 36 41
112 109 106 100 88 89 71 47 12 50 85 21 15 12 22 38 54 40 23 15 17 36 37 23 35 34 33 27 34 29 30 17 19 13 21 25 18 38 39 36 37 39 14 26
107 115 112 100 96 94 71 25 9 26 50 17 29 21 24 36 41 15 12 27 38 43 39 11 36 29 27 34 26 13 20 30 28 30 28 12 12 33 42 42 30 25 34 49
80 121 123 117 109 100 74 19 5 9 19 9 30 16 22 44 23 12 28 17 40 42 29 18 21 36 25 30 32 34 16 10 29 45 39 42 40 29 21 21 38 37 50 53
87 111 116 115 119 106 69 23 10 17 12 49 32 24 27 38 17 15 19 32 43 26 30 19 31 32 31 20 32 27 19 7 13 11 29 32 41 47 46 45 44 35 45 54
93 104 119 127 125 88 48 25 32 39 34 32 18 20 23 28 26 16 28 45 32 25 28 19 32 21 12 12 27 31 18 11 5 10 15 25 20 46 45 46 47 43 43 56
97 103 110 94 89 73 35 47 53 26 18 20 18 36 34 28 16 20 32 34 23 25 47 42 29 26 15 6 6 6 3 5 3 8 7 18 23 25 33 35 39 40 45 55
85 86 86 75 61 70 29 56 43 22 24 21 29 39 39 45 55 35 30 10 28 45 20 9 8 8 9 6 13 21 19 9 5 7 13 28 42 37 30 34 43 35 42 53
61 56 63 59 44 48 59 45 40 70 24 9 53 31 40 25 16 9 14 26 27 14 7 5 9 10 6 8 3 4 23 21 12 9 10 15 32 16 25 25 35 24 32 39
59 55 51 49 42 46 54 48 57 55 30 21 30 13 16 20 15 12 10 7 8 11 5 5 6 7 3 10 8 10 10 10 25 21 17 23 11 24 29 23 14 48 43 42
54 51 50 43 41 42 60 57 57 51 29 19 21 16 18 20 16 12 22 11 4 4 5 5 6 7 12 5 11 12 18 15 11 14 16 30 30 7 26 16 17 31 51 52
54 56 35 49 47 48 60 61 41 75 49 26 44 41 28 24 22 32 24 4 11 14 6 4 5 4 5 6 8 14 13 20 9 18 15 25 25 14 15 31 37 40 51 71
46 43 38 29 49 52 33 58 71 71 54 37 27 28 31 27 20 28 15 10 10 11 12 6 4 5 5 9 14 14 13 14 11 16 21 15 21 15 26 42 49 47 45 53
53 48 45 43 46 51 62 58 46 47 28 12 16 18 24 26 23 16 17 36 28 31 16 8 5 4 3 5 5 7 6 11 8 18 22 50 22 32 46 71 57 55 59 57
46 45 44 48 52 45 50 51 37 23 15 13 15 30 25 19 19 25 34 35 36 15 9 5 5 4 4 6 7 14 7 3 6 16 25 14 39 52 71 58 63 62 65 78
44 40 31 31 38 39 30 21 39 44 50 22 7 10 14 17 18 22 22 21 16 11 8 5 7 6 2 5 7 8 5 2 9 15 44 47 60 62 28 58 62 62 60 58
34 36 40 39 20 4 13 17 15 23 22 14 10 7 7 9 10 13 17 16 10 8 6 5 6 5 4 3 7 7 6 13 21 26 30 19 20 42 59 53 55 54 58 49
23 25 29 33 39 47 47 36 24 19 18 15 8 6 5 9 7 7 7 7 6 7 5 7 5 5 1 8 9 5 11 21 8 9 30 35 38 44 44 47 48 54 52 54
14 15 16 14 13 16 21 27 30 31 16 11 8 5 6 8 8 7 7 6 4 3 4 5 6 5 9 5 3 10 11 9 21 31 29 26 31 38 43 47 50 53 58 56
10 12 8 11 11 15 14 12 9 15 23 18 7 6 4 11 9 5 2 3 1 5 4 10 5 3 6 2 9 11 13 13 17 25 22 34 35 41 46 48 46 45 46 48
9 12 11 17 15 12 12 13 17 19 9 18 10 14 7 17 5 5 7 1 1 6 6 4 4 5 7 5 9 11 11 11 13 15 19 22 27 34 42 43 39 39 40 42
14 17 17 14 13 13 13 5 5 12 5 10 6 9 8 7 6 4 0 1 1 3 3 5 6 5 9 5 7 7 8 8 10 12 15 18 21 26 30 32 37 36 35 39
18 9 9 15 15 16 9 6 4 3 5 9 9 2 3 5 4 2 2 6 6 4 7 5 1 11 6 6 6 6 4 7 8 10 13 16 17 17 22 27 29 31 34 36
7 9 10 8 5 7 4 4 5 3 3 6 6 5 4 2 4 1 5 4 2 4 6 6 5 11 11 10 7 4 2 5 7 9 12 15 17 17 19 23 28 31 36 38
12 11 8 7 5 6 6 6 5 1 2 5 3 2 2 1 3 1 0 4 8 7 3 4 9 12 13 10 8 6 2 1 5 8 9 11 14 17 19 22 26 28 31 34
10 13 10 8 4 5 4 5 4 0 1 1 1 2 3 3 3 6 8 3 7 3 3 6 9 12 12 10 8 5 4 3 6 8 10 11 14 16 20 23 26 29 33 35
9 8 18 11 10 9 8 8 4 2 5 1 1 3 2 1 4 6 5 4 2 3 4 7 10 11 11 10 7 6 5 7 9 10 10 12 14 18 20 20 24 27 30 33
Wind_Direction_500mb
213 212 213 210 215 200 196 165 174 193 191 185 170 188 159 176 168 155 145 156 158 170 175 191 187 205 205 209 204 199 212 243 247 241 244 251 252 226 224 227 212 249 251 262
205 209 213 211 204 198 190 145 128 188 183 181 162 128 153 168 163 157 146 149 163 164 167 189 199 204 206 184 203 200 199 232 237 255 245 224 235 244 233 241 257 255 256 252
214 205 202 196 190 188 177 142 190 157 177 148 151 147 155 151 160 99 116 137 143 150 168 188 192 197 196 193 216 164 207 224 223 236 237 233 202 241 243 247 245 249 242 268
184 189 192 195 192 185 173 157 214 129 160 154 147 141 149 143 143 124 138 139 156 148 156 157 179 192 175 210 203 187 186 233 249 246 253 257 268 249 247 255 255 253 260 253
159 172 177 185 182 176 176 168 135 113 114 140 139 143 168 155 121 150 139 150 155 145 154 174 170 172 186 181 191 201 178 218 192 269 264 264 270 268 261 254 239 249 260 271
139 136 158 160 161 165 167 160 152 129 145 145 138 158 151 148 121 34 143 134 132 125 153 146 150 145 111 148 182 196 206 227 153 245 236 240 255 248 257 260 255 251 245 252
131 137 147 151 158 165 150 164 147 138 128 148 145 152 134 140 125 123 122 126 114 125 116 100 84 69 70 127 154 201 125 133 202 288 346 253 250 266 263 264 257 252 250 258
139 144 155 155 164 183 170 162 150 108 136 123 127 134 115 95 92 86 76 58 134 136 97 81 70 23 21 335 253 220 213 198 246 251 248 283 286 277 262 246 261 247 244 255
137 147 155 157 164 175 170 160 164 132 127 123 133 122 126 123 114 79 110 94 119 107 90 107 158 183 141 196 205 345 234 229 225 205 241 255 269 315 318 257 262 346 308 289
133 153 132 136 138 159 171 138 145 139 100 103 144 126 134 130 86 97 104 117 64 54 105 129 157 173 196 193 187 160 155 204 223 233 247 263 280 238 244 237 283 338 349 344
103 122 133 130 145 142 159 131 138 141 101 79 124 120 99 120 117 132 155 117 49 62 120 152 159 193 201 217 214 171 181 188 199 214 237 260 353 357 230 4 11 341 328 330
100 96 111 149 134 131 145 133 153 134 114 110 103 95 106 125 119 128 152 80 134 156 125 160 122 163 162 218 230 207 237 223 243 211 226 103 39 71 34 13 351 345 329 323
93 95 98 117 164 155 142 135 139 134 114 89 97 68 84 106 113 148 125 173 150 131 112 112 106 193 163 207 226 246 262 349 258 296 266 23 26 52 3 351 343 332 325 318
83 88 90 91 104 145 166 145 131 124 108 93 57 88 90 85 99 107 169 154 139 130 104 87 128 200 206 237 296 272 314 334 343 271 296 334 188 360 345 329 330 326 320 316
70 81 91 97 96 105 117 112 103 121 122 121 112 86 68 90 109 114 113 128 127 103 96 103 164 195 233 227 275 253 35 1 257 272 347 314 289 309 323 326 328 328 325 319
65 68 78 104 113 111 104 65 70 96 111 105 114 104 87 89 96 102 102 109 103 92 110 134 120 128 221 249 257 113 105 291 276 278 310 300 293 303 310 325 322 321 320 318
61 60 61 65 72 136 99 103 83 83 88 91 114 101 71 77 80 68 57 90 100 116 136 181 112 150 295 230 246 91 340 308 296 297 317 309 320 309 314 318 320 322 323 327
56 62 66 69 72 83 76 78 78 74 83 77 100 84 112 45 58 95 109 110 109 170 121 107 105 130 345 247 113 3 331 326 313 302 312 298 302 311 317 325 331 333 339 340
38 48 64 55 41 47 58 63 59 56 80 100 61 118 128 30 45 73 68 96 171 171 175 109 173 152 222 67 26 314 315 325 310 322 329 331 321 328 336 340 344 347 347 348
14 25 32 57 51 61 30 29 31 37 31 47 78 23 68 16 16 82 121 62 141 214 89 126 216 238 108 157 317 294 305 325 331 334 337 331 337 343 347 347 348 348 346 352
19 28 51 82 53 40 42 46 36 354 48 22 32 34 26 18 33 43 22 141 179 221 115 237 193 236 133 252 291 296 308 332 337 329 328 325 329 339 342 344 345 350 359 2
67 81 78 42 33 39 64 39 12 32 51 7 7 1 20 5 42 244 19 204 129 233 111 222 239 116 169 220 256 286 305 336 352 346 352 343 350 354 344 340 348 356 1 13
98 53 49 19 353 44 34 23 49 67 14 2 355 82 2 8 31 352 259 198 208 130 196 232 42 135 176 211 232 252 316 350 10 8 11 355 357 5 359 358 356 1 11 16
72 45 47 28 42 61 53 36 49 75 355 339 341 322 355 318 219 280 220 81 256 219 225 222 142 173 190 207 213 204 100 358 354 11 18 360 353 1 2 3 2 7 12 14
68 40 67 54 107 94 128 113 96 106 352 1 322 272 259 147 234 280 197 198 232 228 220 113 148 184 193 200 204 205 153 353 322 339 6 358 353 356 359 1 4 6 9 10
60 68 108 132 161 146 153 140 143 105 83 83 66 302 258 214 297 210 226 246 233 111 100 147 184 193 195 193 198 213 251 278 309 329 348 353 352 356 0 1 4 7 10 10
60 63 104 119 89 105 153 153 183 152 118 66 253 254 284 95 237 238 205 246 32 115 174 185 193 190 182 193 214 246 281 313 325 338 348 353 352 352 352 357 4 5 5 5
Wind_Speed_850mb
114 110 101 93 85 80 78 50 9 49 78 26 9 31 19 24 47 43 11 25 25 40 50 43 44 39 39 24 49 47 43 13 24 35 25 27 38 45 46 11 14 18 36 41
112 109 106 100 88 89 71 47 12 50 85 21 15 12 22 38 54 40 23 15 17 36 37 23 35 34 33 27 34 29 30 17 19 13 21 25 18 38 39 36 37 39 14 26
107 115 112 100 96 94 71 25 9 26 50 17 29 21 24 36 41 15 12 27 38 43 39 11 36 29 27 34 26 13 20 30 28 30 28 12 12 33 42 42 30 25 34 49
80 121 123 117 109 100 74 19 5 9 19 9 30 16 22 44 23 12 28 17 40 42 29 18 21 36 25 30 32 34 16 10 29 45 39 42 40 29 21 21 38 37 50 53
87 111 116 115 119 106 69 23 10 17 12 49 32 24 27 38 17 15 19 32 43 26 30 19 31 32 31 20 32 27 19 7 13 11 29 32 41 47 46 45 44 35 45 54
93 104 119 127 125 88 48 25 32 39 34 32 18 20 23 28 26 16 28 45 32 25 28 19 32 21 12 12 27 31 18 11 5 10 15 25 20 46 45 46 47 43 43 56
97 103 110 94 89 73 35 47 53 26 18 20 18 36 34 28 16 20 32 34 23 25 47 42 29 26 15 6 6 6 3 5 3 8 7 18 23 25 33 35 39 40 45 55
85 86 86 75 61 70 29 56 43 22 24 21 29 39 39 45 55 35 30 10 28 45 20 9 8 8 9 6 13 21 19 9 5 7 13 28 42 37 30 34 43 35 42 53
61 56 63 59 44 48 59 45 40 70 24 9 53 31 40 25 16 9 14 26 27 14 7 5 9 10 6 8 3 4 23 21 12 9 10 15 32 16 25 25 35 24 32 39
59 55 51 49 42 46 54 48 57 55 30 21 30 13 16 20 15 12 10 7 8 11 5 5 6 7 3 10 8 10 10 10 25 21 17 23 11 24 29 23 14 48 43 42
54 51 50 43 41 42 60 57 57 51 29 19 21 16 18 20 16 12 22 11 4 4 5 5 6 7 12 5 11 12 18 15 11 14 16 30 30 7 26 16 17 31 51 52
54 56 35 49 47 48 60 61 41 75 49 26 44 41 28 24 22 32 24 4 11 14 6 4 5 4 5 6 8 14 13 20 9 18 15 25 25 14 15 31 37 40 51 71
46 43 38 29 49 52 33 58 71 71 54 37 27 28 31 27 20 28 15 10 10 11 12 6 4 5 5 9 14 14 13 14 11 16 21 15 21 15 26 42 49 47 45 53
53 48 45 43 46 51 62 58 46 47 28 12 16 18 24 26 23 16 17 36 28 31 16 8 5 4 3 5 5 7 6 11 8 18 22 50 22 32 46 71 57 55 59 57
46 45 44 48 52 45 50 51 37 23 15 13 15 30 25 19 19 25 34 35 36 15 9 5 5 4 4 6 7 14 7 3 6 16 25 14 39 52 71 58 63 62 65 78
44 40 31 31 38 39 30 21 39 44 50 22 7 10 14 17 18 22 22 21 16 11 8 5 7 6 2 5 7 8 5 2 9 15 44 47 60 62 28 58 62 62 60 58
34 36 40 39 20 4 13 17 15 23 22 14 10 7 7 9 10 13 17 16 10 8 6 5 6 5 4 3 7 7 6 13 21 26 30 19 20 42 59 53 55 54 58 49
23 25 29 33 39 47 47 36 24 19 18 15 8 6 5 9 7 7 7 7 6 7 5 7 5 5 1 8 9 5 11 21 8 9 30 35 38 44 44 47 48 54 52 54
14 15 16 14 13 16 21 27 30 31 16 11 8 5 6 8 8 7 7 6 4 3 4 5 6 5 9 5 3 10 11 9 21 31 29 26 31 38 43 47 50 53 58 56
10 12 8 11 11 15 14 12 9 15 23 18 7 6 4 11 9 5 2 3 1 5 4 10 5 3 6 2 9 11 13 13 17 25 22 34 35 41 46 48 46 45 46 48
9 12 11 17 15 12 12 13 17 19 9 18 10 14 7 17 5 5 7 1 1 6 6 4 4 5 7 5 9 11 11 11 13 15 19 22 27 34 42 43 39 39 40 42
14 17 17 14 13 13 13 5 5 12 5 10 6 9 8 7 6 4 0 1 1 3 3 5 6 5 9 5 7 7 8 8 10 12 15 18 21 26 30 32 37 36 35 39
18 9 9 15 15 16 9 6 4 3 5 9 9 2 3 5 4 2 2 6 6 4 7 5 1 11 6 6 6 6 4 7 8 10 13 16 17 17 22 27 29 31 34 36
7 9 10 8 5 7 4 4 5 3 3 6 6 5 4 2 4 1 5 4 2 4 6 6 5 11 11 10 7 4 2 5 7 9 12 15 17 17 19 23 28 31 36 38
12 11 8 7 5 6 6 6 5 1 2 5 3 2 2 1 3 1 0 4 8 7 3 4 9 12 13 10 8 6 2 1 5 8 9 11 14 17 19 22 26 28 31 34
10 13 10 8 4 5 4 5 4 0 1 1 1 2 3 3 3 6 8 3 7 3 3 6 9 12 12 10 8 5 4 3 6 8 10 11 14 16 20 23 26 29 33 35
9 8 18 11 10 9 8 8 4 2 5 1 1 3 2 1 4 6 5 4 2 3 4 7 10 11 11 10 7 6 5 7 9 10 10 12 14 18 20 20 24 27 30 33
Wind_Direction_850mb
213 212 213 210 215 200 196 165 174 193 191 185 170 188 159 176 168 155 145 156 158 170 175 191 187 205 205 209 204 199 212 243 247 241 244 251 252 226 224 227 212 249 251 262
205 209 213 211 204 198 190 145 128 188 183 181 162 128 153 168 163 157 146 149 163 164 167 189 199 204 206 184 203 200 199 232 237 255 245 224 235 244 233 241 257 255 256 252
214 205 202 196 190 188 177 142 190 157 177 148 151 147 155 151 160 99 116 137 143 150 168 188 192 197 196 193 216 164 207 224 223 236 237 233 202 241 243 247 245 249 242 268
184 189 192 195 192 185 173 157 214 129 160 154 147 141 149 143 143 124 138 139 156 148 156 157 179 192 175 210 203 187 186 233 249 246 253 257 268 249 247 255 255 253 260 253
159 172 177 185 182 176 176 168 135 113 114 140 139 143 168 155 121 150 139 150 155 145 154 174 170 172 186 181 191 201 178 218 192 269 264 264 270 268 261 254 239 249 260 271
139 136 158 160 161 165 167 160 152 129 145 145 138 158 151 148 121 34 143 134 132 125 153 146 150 145 111 148 182 196 206 227 153 245 236 240 255 248 257 260 255 251 245 252
131 137 147 151 158 165 150 164 147 138 128 148 145 152 134 140 125 123 122 126 114 125 116 100 84 69 70 127 154 201 125 133 202 288 346 253 250 266 263 264 257 252 250 258
139 144 155 155 164 183 170 162 150 108 136 123 127 134 115 95 92 86 76 58 134 136 97 81 70 23 21 335 253 220 213 198 246 251 248 283 286 277 262 246 261 247 244 255
137 147 155 157 164 175 170 160 164 132 127 123 133 122 126 123 114 79 110 94 119 107 90 107 158 183 141 196 205 345 234 229 225 205 241 255 269 315 318 257 262 346 308 289
133 153 132 136 138 159 171 138 145 139 100 103 144 126 134 130 86 97 104 117 64 54 105 129 157 173 196 193 187 160 155 204 223 233 247 263 280 238 244 237 283 338 349 344
103 122 133 130 145 142 159 131 138 141 101 79 124 120 99 120 117 132 155 117 49 62 120 152 159 193 201 217 214 171 181 188 199 214 237 260 353 357 230 4 11 341 328 330
100 96 111 149 134 131 145 133 153 134 114 110 103 95 106 125 119 128 152 80 134 156 125 160 122 163 162 218 230 207 237 223 243 211 226 103 39 71 34 13 351 345 329 323
93 95 98 117 164 155 142 135 139 134 114 89 97 68 84 106 113 148 125 173 150 131 112 112 106 193 163 207 226 246 262 349 258 296 266 23 26 52 3 351 343 332 325 318
83 88 90 91 104 145 166 145 131 124 108 93 57 88 90 85 99 107 169 154 139 130 104 87 128 200 206 237 296 272 314 334 343 271 296 334 188 360 345 329 330 326 320 316
70 81 91 97 96 105 117 112 103 121 122 121 112 86 68 90 109 114 113 128 127 103 96 103 164 195 233 227 275 253 35 1 257 272 347 314 289 309 323 326 328 328 325 319
65 68 78 104 113 111 104 65 70 96 111 105 114 104 87 89 96 102 102 109 103 92 110 134 120 128 221 249 257 113 105 291 276 278 310 300 293 303 310 325 322 321 320 318
61 60 61 65 72 136 99 103 83 83 88 91 114 101 71 77 80 68 57 90 100 116 136 181 112 150 295 230 246 91 340 308 296 297 317 309 320 309 314 318 320 322 323 327
56 62 66 69 72 83 76 78 78 74 83 77 100 84 112 45 58 95 109 110 109 170 121 107 105 130 345 247 113 3 331 326 313 302 312 298 302 311 317 325 331 333 339 340
38 48 64 55 41 47 58 63 59 56 80 100 61 118 128 30 45 73 68 96 171 171 175 109 173 152 222 67 26 314 315 325 310 322 329 331 321 328 336 340 344 347 347 348
14 25 32 57 51 61 30 29 31 37 31 47 78 23 68 16 16 82 121 62 141 214 89 126 216 238 108 157 317 294 305 325 331 334 337 331 337 343 347 347 348 348 346 352
19 28 51 82 53 40 42 46 36 354 48 22 32 34 26 18 33 43 22 141 179 221 115 237 193 236 133 252 291 296 308 332 337 329 328 325 329 339 342 344 345 350 359 2
67 81 78 42 33 39 64 39 12 32 51 7 7 1 20 5 42 244 19 204 129 233 111 222 239 116 169 220 256 286 305 336 352 346 352 343 350 354 344 340 348 356 1 13
98 53 49 19 353 44 34 23 49 67 14 2 355 82 2 8 31 352 259 198 208 130 196 232 42 135 176 211 232 252 316 350 10 8 11 355 357 5 359 358 356 1 11 16
72 45 47 28 42 61 53 36 49 75 355 339 341 322 355 318 219 280 220 81 256 219 225 222 142 173 190 207 213 204 100 358 354 11 18 360 353 1 2 3 2 7 12 14
68 40 67 54 107 94 128 113 96 106 352 1 322 272 259 147 234 280 197 198 232 228 220 113 148 184 193 200 204 205 153 353 322 339 6 358 353 356 359 1 4 6 9 10
60 68 108 132 161 146 153 140 143 105 83 83 66 302 258 214 297 210 226 246 233 111 100 147 184 193 195 193 198 213 251 278 309 329 348 353 352 356 0 1 4 7 10 10
60 63 104 119 89 105 153 153 183 152 118 66 253 254 284 95 237 238 205 246 32 115 174 185 193 190 182 193 214 246 281 313 325 338 348 353 352 352 352 357 4 5 5 5